Погода в Онтарио

США     34°03′16″N   117°37′39″W
темп.,
°C
ветер,
м/с
пор.,
м/с
влажн.,
%
обл.,
%
осадки,
мм/ч
давл.,
гПа
погр.,
м
31 июля, сб
сб3123:00+23юз2157100 0.0 1016318
02:00+23зюз2159100 0.0 1015189
05:00+22зюз12591 0.0 1015108
08:00+24зюз215166 0.0 1016192
11:00+30зюз32326 0.0 1016498
14:00+34зюз5522100 0.0 1014888
17:00+33зюз56192 0.0 1014787
20:00+29юз34242 0.0 1015444
1 августа, вс
вс123:00+26юз11330 0.0 1016190
02:00+25зюз113773 0.0 101560
05:00+24зюз11425 0.0 101549
08:00+25зюз11390 0.0 1017175
11:00+31зюз32230 0.0 1016580
14:00+35зюз56160 0.0 1015934
17:00+34зюз56140 0.0 1014795
20:00+30юз34190 0.0 1015405
2 августа, пн
пн223:00+27ююз11260 0.0 1016109
02:00+26юз11300 0.0 101530
05:00+24зюз11350 0.0 101626
08:00+27юз10290 0.0 1016138
11:00+33зюз33180 0.0 1015538
14:00+37зюз55120 0.0 1013907
17:00+36зюз5690 0.0 1012831
20:00+31зюз23130 0.0 1013370
3 августа, вт
вт323:00+28юз11210 0.0 1014112
02:00+26юз11280 0.0 101341
05:00+25зюз11340 0.0 101348
08:00+26зюз11310 0.0 1014151
11:00+33зюз32160 0.0 1013510
14:00+36зюз54130 0.0 1011782
17:00+35зюз55140 0.0 1010750
20:00+30зюз33210 0.0 1010371
4 августа, ср
ср423:00+28юз11300 0.0 1011148
02:00+26юз11370 0.0 101187
05:00+24зюз22450 0.0 101198
08:00+26зюз11370 0.0 1012163
11:00+32зюз32210 0.0 1012541
14:00+35зюз44150 0.0 1011756
17:00+34зюз55160 0.0 1010758
20:00+30зюз33250 0.0 1010383